Home > Weather > Omsk > Past weeks

Flag for Russia Weather for the Past 2 Weeks in Omsk, Russia

Now
34 °F

Light snow. Passing clouds.


Feels Like: 26 °F
Forecast: 20 / 36 °F
Wind: 10 mph from Southwest

Location: Omsk

Current Time: Feb 6, 2016 at 5:17:31 AM

Latest Report: Feb 6, 2016 at 4:30 AM


Visibility: 5 mi

Pressure: 29.80 "Hg

Humidity: 100%

Dew point: 34 °F

Location of OmskLocation

Historic Weather in Omsk — Graph

°F

Omsk Temperature Yesterday

Maximum temperature yesterday: 34 °F (at 5:30 AM)
Minimum temperature yesterday: 25 °F (at 12:00 AM)
Average temperature yesterday: 29 °F

High & Low Weather Summary for the Past Weeks

 TemperatureHumidityPressure
High34 °F (Feb 5, 5:30 AM)100% (Feb 1, 9:00 PM)30.98 "Hg (Feb 1, 9:00 PM)
Low-13 °F (Jan 22, 4:00 AM)55% (Jan 27, 12:00 AM)29.59 "Hg (Feb 5, 4:30 AM)
Average5 °F80%30.46 "Hg
* Reported Jan 22 4:00 AM — Feb 6 4:00 AM, Omsk, Weather by CustomWeather, © 2016

Note: Actual official high and low records may vary slightly from our data, if they occured in-between our weather recording intervals... More about our weather records

Advertising

Omsk Weather History for the Previous 24 Hours

 ConditionsComfort  
Time TempWeatherWind HumidityBarometerVisibility
4:00 AM
Sat, Feb 6
32 °FLight snow. Passing clouds.8 mph100%29.80 "Hg3 mi
3:30 AM30 °FLight snow. Passing clouds.8 mph100%29.83 "Hg2 mi
3:00 AM30 °FLight snow. Passing clouds.8 mph100%29.83 "Hg1 mi
2:30 AM30 °FLight snow. Passing clouds.10 mph100%29.86 "Hg3 mi
2:00 AM30 °FLight snow. Passing clouds.10 mph93%29.86 "Hg2 mi
1:30 AM28 °FLight snow. Passing clouds.8 mph100%29.89 "Hg2 mi
1:00 AM28 °FLight snow. Passing clouds.8 mph100%29.92 "Hg2 mi
12:30 AM28 °FLight snow. Passing clouds.13 mph93%29.92 "Hg3 mi
12:00 AM28 °FLight snow. Passing clouds.13 mph93%29.95 "Hg3 mi
11:30 PM
Fri, Feb 5
28 °FLight snow. Passing clouds.13 mph93%29.95 "Hg3 mi
11:00 PM28 °FLight snow. Passing clouds.13 mph93%29.98 "Hg4 mi
10:30 PM28 °FLight snow. Passing clouds.13 mph93%30.01 "Hg4 mi
10:00 PM28 °FLight snow. Passing clouds.13 mph93%30.01 "Hg2 mi
9:30 PM28 °FLight snow. Passing clouds.15 mph93%30.01 "Hg2 mi
9:00 PM30 °FLight snow. Passing clouds.17 mph86%30.04 "Hg3 mi
8:30 PM28 °FPassing clouds.20 mph86%30.04 "HgN/A
8:00 PM28 °FPassing clouds.15 mph93%30.04 "HgN/A
7:30 PM30 °FScattered clouds.13 mph86%30.04 "HgN/A
7:00 PM30 °FPartly sunny.15 mph86%30.04 "HgN/A
6:30 PM30 °FPartly sunny.15 mph86%30.01 "HgN/A
6:00 PM28 °FPartly sunny.10 mph93%30.01 "HgN/A
5:30 PM28 °FPartly sunny.8 mph86%30.01 "HgN/A
5:00 PM28 °FPartly sunny.13 mph80%30.01 "HgN/A
4:30 PM28 °FPartly sunny.13 mph80%29.98 "HgN/A
4:00 PM28 °FPartly sunny.13 mph80%29.98 "HgN/A
3:30 PM27 °FPartly sunny.15 mph80%29.95 "HgN/A
3:00 PM27 °FPartly sunny.15 mph86%29.95 "HgN/A
2:30 PM27 °FSunny.17 mph86%29.95 "Hg10 mi
2:00 PM27 °FSunny.15 mph86%29.92 "Hg10 mi
1:30 PM27 °FScattered clouds.17 mph86%29.89 "HgN/A
1:00 PM27 °FBroken clouds.17 mph86%29.89 "HgN/A
12:30 PM27 °FPartly sunny.20 mph86%29.86 "Hg5 mi
12:00 PM27 °FSnow flurries. Partly sunny.20 mph86%29.86 "Hg5 mi
11:00 AM27 °FSnow flurries. Partly sunny.20 mph93%29.80 "Hg4 mi
10:30 AM28 °FSnow flurries. Passing clouds.20 mph86%29.77 "Hg4 mi
10:00 AM28 °FPassing clouds.22 mph86%29.74 "Hg4 mi
9:30 AM28 °FSnow flurries. Passing clouds.22 mph86%29.71 "Hg3 mi
8:30 AM28 °FSnow flurries. Passing clouds.20 mph93%29.68 "Hg1 mi
8:00 AM28 °FSnow flurries. Passing clouds.20 mph93%29.65 "Hg1 mi
7:30 AM30 °FSnow showers. Passing clouds.20 mph93%29.65 "Hg1 mi
7:00 AM30 °FSnow showers. Passing clouds.20 mph93%29.62 "Hg1 mi
6:00 AM34 °FSnow flurries. Passing clouds.20 mph87%29.62 "Hg5 mi
5:30 AM34 °FSnow flurries. Passing clouds.15 mph93%29.62 "Hg5 mi
Weather by CustomWeather, © 2016

See weather overviewHow to use our weather pages